Theta_e
307 307 307 307 308 308 308 308 308 307 307 307 307 307 308 307 308 303 297 300 299 294 295 298 298 294 294 293 290 295 294 298 298 295 294 292 292 296 298 303 301 301 297 298 298 293 293 309 310 303 307 311 311 312
308 307 307 308 308 307 307 307 307 307 306 306 307 307 307 307 307 306 295 299 305 297 295 300 300 302 300 299 294 294 291 296 299 294 296 296 297 297 297 296 307 300 306 302 302 298 307 310 308 311 311 313 313 315
307 308 307 307 307 307 307 307 307 307 306 305 306 307 306 307 306 305 296 295 295 296 294 293 293 298 302 302 304 292 294 298 299 298 295 300 297 299 296 299 303 308 310 305 305 308 310 311 312 314 314 312 313 313
306 306 307 306 307 306 306 306 306 306 305 305 306 306 306 306 307 305 297 296 297 295 289 290 299 297 300 300 301 301 298 297 298 298 296 296 296 299 297 300 301 306 309 307 307 309 311 313 314 315 313 313 311 311
306 306 306 306 306 306 306 306 306 306 304 305 306 306 306 306 307 304 298 299 299 293 289 289 295 298 298 298 300 300 297 295 294 294 294 294 297 298 299 302 301 303 305 304 303 311 308 310 313 314 311 311 311 311
307 306 307 307 306 306 306 305 306 305 304 305 305 306 306 307 305 295 295 298 300 298 294 287 292 294 298 297 297 295 296 296 296 293 294 300 299 301 298 298 301 303 307 309 307 309 309 309 310 312 307 307 308 308
307 307 307 305 305 306 305 306 305 305 304 305 305 306 306 307 297 291 294 299 304 301 294 288 288 296 298 296 297 295 295 297 296 292 294 295 295 300 298 293 300 305 309 308 310 309 304 307 306 309 308 307 308 307
306 306 305 305 304 305 306 305 304 304 304 305 305 306 307 307 303 296 300 305 303 297 294 288 290 292 295 292 293 295 293 294 294 293 293 296 300 301 296 300 303 306 307 307 308 309 308 309 308 306 307 307 306 305
306 305 305 304 304 305 305 304 304 304 304 304 305 306 300 296 293 298 307 308 300 293 289 292 290 289 295 292 293 295 294 290 293 295 298 300 298 297 300 301 302 302 302 303 305 305 306 305 304 305 304 304 304 305
305 305 304 304 304 304 305 304 303 304 304 305 298 296 293 298 308 305 295 292 292 292 291 289 293 289 293 294 292 293 292 290 288 294 302 300 299 303 303 304 304 304 304 304 302 302 303 302 303 304 304 306 306 306
305 305 304 305 305 304 305 304 304 305 302 297 295 295 300 304 295 294 292 291 291 289 293 292 292 291 296 293 293 295 291 290 288 294 296 299 297 300 304 306 306 307 307 305 305 305 305 305 305 306 307 308 308 308
306 306 306 306 306 305 305 305 305 300 300 300 299 301 297 293 290 290 286 290 290 290 294 293 293 293 295 298 293 295 291 291 287 296 296 295 301 304 304 306 306 307 308 308 309 309 310 310 310 309 309 309 309 310
306 306 306 306 306 306 305 305 305 306 304 299 294 289 288 286 283 285 285 287 288 293 295 294 291 296 295 296 294 294 292 289 298 297 294 298 303 306 304 306 306 308 309 309 310 311 310 309 311 310 308 309 310 311
306 306 306 306 306 305 305 306 305 303 299 294 291 286 288 285 290 291 291 292 296 296 296 294 293 294 294 293 294 292 292 296 293 292 293 301 302 304 306 306 306 305 307 307 307 308 308 308 308 309 310 309 309 309
306 306 306 306 306 306 306 306 306 299 294 292 292 286 289 294 296 297 297 296 298 298 296 295 294 294 293 293 293 294 293 291 294 293 298 302 303 304 305 306 306 306 305 305 305 306 306 307 307 307 309 308 310 310
304 303 301 306 306 306 305 302 298 298 295 294 291 290 294 293 293 295 296 296 298 296 296 295 291 290 289 291 292 292 292 289 294 298 301 301 302 303 303 304 305 305 304 303 303 305 305 305 305 305 307 308 308 309
303 296 305 307 306 306 304 297 296 294 292 292 292 294 293 292 292 293 294 294 296 294 291 293 290 288 292 291 291 296 294 296 299 298 299 300 300 301 303 304 305 305 304 304 304 304 304 305 304 303 304 306 308 309
296 299 304 306 305 299 296 296 295 293 290 291 290 293 293 292 291 292 293 294 295 294 294 293 294 292 291 291 292 295 295 296 297 298 300 301 302 303 304 304 304 303 304 304 304 304 303 303 301 301 303 304 306 306
299 301 306 307 304 295 293 294 293 288 289 289 290 291 291 291 292 293 294 297 294 296 295 294 294 292 291 294 293 295 296 297 298 299 300 302 303 306 306 306 306 305 304 303 302 303 303 302 301 301 302 303 303 304
306 306 307 307 303 293 291 289 294 289 287 290 290 290 290 290 292 293 294 294 291 292 292 292 293 294 294 295 296 298 298 299 299 298 298 301 304 305 306 305 303 303 302 303 302 300 302 301 300 301 302 303 304 303
302 301 305 301 296 293 291 289 289 289 289 288 289 289 289 291 291 290 290 291 291 288 290 293 295 296 297 298 298 299 299 301 299 299 299 301 305 306 305 304 303 303 304 303 303 303 300 298 298 300 300 300 300 301
297 305 296 298 292 291 290 290 288 290 288 288 288 289 288 290 289 288 289 289 289 291 292 293 293 294 295 296 297 298 300 304 307 304 301 302 304 303 306 303 302 299 297 297 297 297 297 298 299 300 300 300 300 301
302 298 294 293 288 285 285 291 289 289 286 287 288 286 285 288 289 291 288 288 289 292 293 297 300 300 298 301 302 303 305 305 305 306 305 305 305 306 299 296 296 295 294 294 295 296 296 295 297 298 299 299 299 298
302 293 288 287 287 287 291 290 290 290 290 289 288 287 290 291 294 294 292 295 294 297 301 304 304 304 305 305 302 302 302 303 302 302 303 303 300 294 294 294 294 294 295 294 294 295 296 297 295 297 297 297 297 297
290 289 289 285 289 288 289 290 290 290 289 291 288 289 292 294 293 293 294 298 300 300 300 301 301 300 300 301 302 302 302 301 302 296 295 302 296 296 295 296 295 295 295 294 293 294 295 296 295 296 296 297 298 299
287 288 287 286 285 287 286 286 287 288 290 289 289 292 292 294 293 291 294 297 299 300 301 301 300 300 297 298 297 295 295 296 296 294 295 295 295 294 294 292 291 292 295 294 293 293 295 295 295 295 296 298 295 298
289 293 294 292 291 291 292 292 294 290 291 290 290 294 292 289 291 295 299 301 301 302 303 303 302 299 295 293 294 295 294 295 295 295 294 294 294 295 294 292 292 292 294 294 294 295 294 294 294 294 294 298 299 299
296 297 294 294 293 295 293 294 293 292 294 295 295 293 293 293 293 298 300 302 302 301 297 297 296 295 295 295 294 294 295 295 295 295 294 294 293 292 293 293 293 291 293 293 295 295 295 294 294 293 293 293 296 298
297 299 297 293 294 296 295 294 293 294 296 297 294 294 295 298 299 300 299 297 297 298 296 295 295 295 295 295 295 294 292 293 292 291 290 289 289 291 291 292 291 292 293 294 292 293 294 293 293 293 293 293 294 295
297 299 297 297 295 294 297 297 297 298 298 299 299 298 297 298 301 302 299 298 296 295 294 294 293 292 291 291 291 292 291 291 290 289 288 288 289 290 291 291 291 291 292 293 293 293 292 293 292 293 292 291 291 291
302 302 300 299 297 300 301 303 301 302 304 303 302 299 298 299 301 306 305 302 299 297 293 292 293 292 291 290 290 289 289 291 290 291 291 290 290 291 291 291 291 291 292 292 291 291 291 290 289 289 288 288 288 288
301 300 299 297 299 305 306 303 300 301 303 304 302 303 302 300 296 301 307 306 301 297 294 293 291 290 290 290 290 290 290 289 290 290 290 290 290 290 290 290 289 290 290 288 288 287 288 288 287 286 285 285 285 285
300 301 301 300 299 299 301 302 301 301 303 302 301 302 302 300 295 302 309 309 303 295 292 292 291 291 290 289 288 289 289 289 289 288 288 288 288 287 287 287 288 287 286 286 286 285 285 285 284 284 284 284 284 284
Wind_Speed
21 21 20 21 21 21 20 19 18 18 17 15 15 16 14 11 14 4 3 4 3 4 11 12 13 10 8 4 3 5 7 3 4 3 1 2 3 2 3 2 13 7 2 2 4 3 0 11 4 5 2 0 7 8
21 22 21 20 20 19 17 16 16 15 12 14 16 13 12 12 10 3 2 3 2 5 7 8 15 19 15 18 3 4 3 4 3 1 2 3 1 2 2 3 4 6 8 4 1 3 5 7 3 3 3 11 12 12
21 20 20 20 18 17 16 16 14 13 10 10 15 14 9 7 5 5 3 2 0 4 9 6 14 13 12 21 16 5 4 3 2 4 3 3 2 2 2 1 4 6 1 7 5 4 7 9 8 7 5 7 5 8
22 21 19 19 16 15 15 11 10 9 8 9 12 9 6 7 8 1 3 3 1 3 5 8 4 9 3 5 16 23 11 5 3 1 5 4 1 2 2 2 2 2 3 6 6 3 2 4 3 6 3 9 13 13
20 20 20 17 14 13 14 13 10 7 7 8 8 6 7 6 7 1 3 5 4 2 4 8 14 8 6 7 13 15 12 6 3 3 4 3 0 2 2 3 5 4 1 3 7 7 7 6 3 6 7 10 8 14
20 19 20 9 9 11 10 6 7 6 5 7 7 6 8 7 3 2 3 1 4 4 4 6 5 6 4 5 8 8 7 3 1 2 3 3 1 2 3 3 4 9 4 4 2 8 9 9 13 6 12 13 14 15
20 16 8 2 6 9 6 7 5 4 4 7 4 6 8 8 2 2 1 1 5 1 2 6 6 5 3 2 2 2 2 3 3 2 2 3 4 3 2 4 14 11 6 5 5 3 15 13 6 5 9 12 13 10
17 10 3 2 4 8 8 2 2 1 4 4 6 8 9 8 5 4 3 12 5 2 0 3 6 6 1 1 0 2 2 2 2 1 2 2 3 3 5 6 9 6 9 12 10 10 8 3 5 7 7 7 11 10
10 9 5 4 5 6 5 3 3 1 3 6 9 9 2 2 1 3 3 6 3 3 2 2 3 4 4 0 1 1 2 1 2 3 3 4 4 6 3 6 8 7 5 3 7 9 6 9 7 9 10 10 9 8
6 7 5 6 5 3 4 3 3 3 6 7 3 2 2 2 7 3 3 2 1 2 1 4 2 5 1 2 2 2 2 3 4 3 1 5 3 2 5 4 5 6 6 2 3 9 8 8 7 7 6 4 4 2
7 6 5 5 3 4 3 4 5 7 5 3 3 2 3 8 2 1 1 2 1 3 4 5 4 3 2 1 2 2 2 1 5 3 5 3 3 4 7 6 6 6 5 7 7 4 4 4 5 5 6 7 6 6
6 7 6 5 5 4 3 6 8 3 1 3 3 3 3 3 2 1 3 3 4 3 3 3 3 5 4 1 0 3 1 3 4 2 5 3 1 4 5 4 3 4 5 7 6 7 8 10 8 7 6 7 6 5
10 9 8 7 7 7 6 5 7 9 6 1 1 4 3 2 6 3 5 4 4 3 3 4 4 1 4 2 3 5 5 2 1 5 4 3 2 4 6 5 7 7 9 10 12 10 9 8 7 6 6 6 7 7
11 12 11 9 8 7 8 10 11 8 3 3 3 5 2 2 2 1 2 3 5 3 5 3 3 3 3 5 3 5 3 3 5 2 4 1 3 3 3 4 5 7 9 9 8 8 7 7 6 5 5 5 5 6
10 11 9 11 8 7 8 8 8 2 2 2 2 4 4 3 2 5 4 3 3 3 3 3 1 3 4 5 4 4 6 6 6 4 2 2 4 3 3 4 5 6 6 5 4 4 5 6 5 5 5 5 4 5
6 6 6 13 10 10 11 7 3 1 1 3 3 3 4 1 4 7 8 10 2 5 2 3 3 4 5 3 6 5 3 3 2 2 3 3 4 4 4 4 4 4 4 4 4 3 4 5 5 5 5 4 4 4
8 3 12 14 16 15 5 1 2 2 4 3 3 2 3 3 4 4 3 4 4 2 3 2 6 3 3 5 4 4 3 2 2 1 1 2 3 3 3 3 4 4 5 5 4 4 4 4 5 3 4 3 3 3
1 5 14 17 12 5 3 2 2 3 4 1 3 6 4 2 4 4 5 4 5 4 3 3 1 7 4 4 3 2 2 2 2 2 2 3 3 3 2 3 4 4 4 4 3 3 3 4 4 3 4 3 5 4
6 7 14 16 5 2 3 5 4 4 2 2 4 3 3 4 3 4 4 5 2 1 3 3 5 3 3 2 1 1 1 1 2 3 3 4 3 4 5 4 4 4 5 5 4 3 3 3 3 3 3 2 3 3
10 10 13 10 5 3 4 4 2 3 4 3 3 5 4 3 4 4 4 7 5 3 6 5 2 0 1 2 2 2 1 1 2 4 3 3 3 5 5 4 4 5 5 4 3 3 3 3 1 2 2 2 2 4
8 6 10 5 4 5 2 3 4 1 3 3 4 4 4 4 4 6 5 5 5 3 3 2 2 2 3 3 2 2 3 1 2 2 3 3 2 3 3 4 4 3 2 3 4 5 5 3 3 3 3 3 3 3
3 8 3 5 4 5 3 1 1 3 2 3 4 4 4 4 4 4 5 4 3 2 1 2 2 3 3 3 3 4 4 4 4 3 5 4 3 3 3 3 3 3 4 3 3 4 4 4 3 3 3 3 3 3
5 5 3 5 4 5 5 3 4 4 4 5 4 4 3 4 3 3 3 1 3 4 3 3 3 3 5 5 3 4 4 3 3 4 4 2 3 2 3 4 3 4 4 4 3 3 3 5 4 4 3 3 3 3
4 3 4 2 3 4 3 4 2 3 4 4 3 4 3 3 5 3 3 3 3 2 2 3 2 4 4 4 4 4 3 3 3 4 3 1 3 2 3 3 3 3 1 2 3 3 3 3 4 3 3 2 3 4
2 4 3 4 3 3 3 4 3 3 2 1 3 2 3 3 3 3 3 4 1 2 2 2 3 3 2 3 4 4 5 2 2 3 4 1 3 2 2 2 2 2 2 4 5 4 5 4 3 3 4 4 4 5
4 1 2 1 1 1 1 3 2 2 2 1 1 1 2 2 3 3 3 2 2 2 3 2 1 2 4 2 2 5 5 4 2 3 3 2 0 2 2 3 3 4 2 1 3 4 4 4 4 5 3 2 3 1
4 2 2 2 2 2 2 2 1 1 2 1 1 0 1 2 1 4 4 2 2 1 0 2 3 4 3 3 3 3 4 4 2 1 1 2 3 1 2 2 3 4 4 4 3 3 4 5 5 5 4 3 3 3
3 2 3 3 3 3 2 2 2 4 3 2 3 1 2 1 2 3 2 3 3 3 5 6 5 4 3 2 3 4 5 5 3 1 1 2 3 2 3 3 3 8 4 3 2 3 3 4 5 6 5 4 5 2
3 3 3 3 3 4 4 4 3 3 4 4 3 2 3 4 7 4 5 4 5 7 8 7 7 5 5 4 4 4 5 5 6 6 6 4 4 4 3 3 4 3 3 3 5 4 4 4 5 5 6 6 5 4
4 4 3 2 1 1 2 3 0 2 1 1 4 8 8 7 9 8 9 10 9 6 4 3 3 4 4 5 6 7 4 5 4 3 3 4 4 5 4 4 4 4 3 3 3 4 7 6 6 6 7 7 6 6
2 3 3 1 1 2 2 3 2 1 6 6 5 8 5 2 4 8 9 7 5 5 6 7 6 8 8 8 6 5 6 6 8 7 6 4 4 5 5 4 4 3 3 5 4 4 5 5 5 6 6 7 8 8
3 3 3 4 4 4 3 2 2 4 4 6 6 7 4 4 6 7 6 6 6 5 5 5 5 5 5 3 4 4 4 4 8 8 9 6 6 7 6 6 6 6 7 7 7 6 7 6 5 6 7 8 9 9
3 2 2 2 4 4 3 3 3 4 5 4 3 1 1 3 4 3 1 1 2 3 3 3 2 3 6 7 7 6 7 6 10 14 16 16 15 12 7 6 6 7 8 7 7 7 9 9 8 9 9 9 9 10
Wind_Direction
298 297 295 295 290 291 290 286 283 291 293 285 280 277 272 262 263 163 240 194 202 262 276 262 259 260 276 271 262 323 327 313 341 344 301 263 121 196 97 169 183 186 51 282 285 11 89 0 10 162 192 14 76 49
302 295 292 292 293 295 292 287 279 287 292 294 287 279 281 272 272 196 228 251 157 243 276 303 261 249 240 235 305 290 271 280 249 313 306 282 26 52 164 146 50 173 178 159 113 270 283 312 338 331 246 86 92 83
310 302 296 294 291 291 291 289 281 285 294 295 294 275 269 272 290 181 198 203 335 263 284 263 256 267 233 230 221 221 244 230 255 155 266 271 287 117 101 56 115 11 242 106 138 300 329 353 347 353 18 66 82 80
308 307 301 297 291 289 299 287 288 272 285 297 299 284 280 286 288 231 179 175 195 279 276 283 299 269 197 193 200 207 229 345 2 276 232 244 231 103 199 171 106 238 358 139 77 203 98 19 344 295 10 79 75 65
308 304 301 289 282 290 290 285 263 270 293 295 298 297 300 312 319 267 198 204 186 193 295 285 295 264 255 186 183 199 218 226 211 275 246 220 198 45 267 119 37 334 206 152 195 210 127 154 88 275 92 74 63 77
310 306 299 276 275 289 305 302 281 269 275 300 290 296 324 318 23 20 294 137 184 169 267 291 288 292 324 154 156 172 203 206 186 245 277 299 15 87 51 66 353 314 318 303 213 89 82 95 71 36 66 63 64 59
314 306 299 240 292 302 335 314 294 291 274 295 316 298 302 300 121 183 281 9 143 164 255 298 297 272 296 145 131 134 143 193 154 252 274 31 356 61 54 44 329 339 7 25 16 92 61 36 63 6 63 63 56 62
334 350 31 338 354 350 339 357 3 294 316 324 307 303 297 294 305 292 250 226 196 249 252 276 274 317 258 253 244 163 138 65 220 246 75 112 3 31 48 341 345 345 63 54 59 76 97 114 68 49 54 56 57 48
346 6 21 59 9 352 4 15 6 332 316 314 309 311 15 66 252 251 331 136 148 151 276 255 284 287 355 265 202 68 106 135 343 66 19 91 13 49 333 311 353 354 45 96 62 68 78 74 51 33 41 38 46 21
18 23 33 14 340 340 19 43 11 355 334 334 14 360 316 233 318 16 322 55 11 267 286 247 265 268 28 14 360 62 76 163 65 289 353 75 59 33 330 332 350 341 15 13 143 39 28 46 46 43 55 66 63 5
38 26 10 346 38 26 61 44 6 345 351 13 352 278 278 319 49 13 267 208 194 256 201 240 222 274 311 8 267 200 194 97 92 267 93 83 70 342 338 14 354 353 27 52 87 107 94 101 72 41 22 18 11 355
31 30 33 42 35 46 70 37 17 28 334 283 284 294 315 7 27 319 257 268 207 250 221 241 243 204 276 182 200 336 88 42 94 181 85 87 31 333 340 339 2 8 44 55 56 58 42 39 30 25 20 5 349 324
29 43 41 39 32 36 42 4 342 335 318 25 4 346 38 315 40 23 357 337 324 314 324 315 311 305 328 41 41 30 34 54 131 42 67 71 305 348 341 350 14 16 38 48 41 41 39 32 26 23 3 360 352 347
35 39 37 37 32 18 1 1 357 353 355 15 345 353 11 353 5 295 277 254 271 282 305 279 299 33 338 19 67 51 302 48 96 69 81 103 34 345 351 358 40 21 26 30 23 11 14 18 9 10 21 355 345 341
34 34 28 14 5 349 334 323 320 3 30 17 320 5 358 315 283 272 270 282 266 275 328 324 319 80 4 33 14 47 42 21 30 44 69 47 335 330 354 13 24 17 8 13 358 360 353 352 352 341 351 338 353 345
21 34 5 349 339 318 311 333 7 21 40 29 32 320 298 326 334 341 355 351 106 309 359 12 14 40 48 37 51 360 51 58 65 38 338 340 353 6 7 355 354 332 332 320 316 312 327 353 348 322 326 345 349 341
53 0 316 331 334 318 336 36 355 339 58 17 307 265 261 257 244 248 276 291 298 29 30 8 44 1 308 53 45 16 38 31 38 357 298 305 313 315 319 318 331 330 316 314 307 309 306 321 326 340 338 324 334 332
22 286 312 325 341 340 351 29 355 16 38 350 337 332 323 279 306 326 320 319 1 13 23 60 90 36 39 38 42 357 8 284 255 313 314 323 331 356 5 339 333 326 319 302 292 278 295 345 346 312 297 312 331 349
277 300 319 334 353 47 12 349 34 33 326 320 305 311 304 287 278 283 301 340 328 329 87 44 62 42 42 26 109 303 321 359 331 316 308 316 321 344 342 340 330 333 336 335 338 323 300 287 259 289 285 317 294 297
323 320 336 339 10 29 19 349 43 48 360 306 318 337 300 305 309 322 334 4 350 29 35 43 50 211 159 263 219 248 261 310 344 340 335 317 315 356 351 326 310 309 314 317 303 263 326 323 297 289 276 254 273 305
338 321 336 10 22 50 92 356 359 11 321 343 315 346 303 347 8 0 340 335 30 40 39 352 356 312 293 269 288 294 301 250 248 219 255 290 336 308 302 298 295 301 315 336 350 347 7 326 307 331 348 330 317 302
280 341 352 356 38 357 70 345 228 293 356 287 341 354 11 356 342 343 313 19 35 304 276 280 273 265 302 308 273 236 249 253 250 236 252 255 300 316 323 348 25 41 32 27 29 27 13 342 352 20 27 359 8 6
332 8 13 13 37 32 280 358 32 358 21 325 353 28 3 350 296 326 24 253 260 254 252 264 267 242 249 272 268 265 247 241 241 246 259 235 271 334 71 49 49 62 37 11 5 16 3 337 5 17 360 4 2 355
347 38 36 26 32 349 331 353 353 360 351 18 5 348 346 323 323 12 358 302 266 278 283 296 358 332 323 339 340 312 315 233 288 313 315 268 109 92 93 87 63 61 34 301 347 344 335 340 341 355 2 344 353 12
37 2 44 349 357 359 349 328 341 14 356 332 357 335 338 347 26 12 334 294 303 230 250 297 330 324 319 314 317 331 339 13 39 37 353 130 114 101 84 76 57 37 354 10 349 335 327 329 341 350 5 10 31 58
29 204 124 219 255 307 261 310 323 316 322 306 220 281 330 351 41 336 266 254 279 318 320 325 17 15 41 27 353 2 337 336 17 34 358 22 295 108 84 55 6 324 353 322 317 317 326 332 335 346 358 70 37 88
351 343 179 211 229 225 263 256 240 309 299 270 223 239 329 46 60 261 278 259 248 230 37 62 84 73 60 359 348 345 344 10 30 253 314 39 58 70 128 89 351 285 318 324 336 337 330 329 325 310 305 260 253 243
248 257 247 186 211 219 265 237 224 225 230 191 132 60 59 16 334 290 270 326 313 63 76 62 57 62 53 6 345 355 348 344 345 360 22 40 32 6 12 354 324 313 309 309 324 334 323 313 317 315 304 301 285 287
256 240 167 239 218 210 222 224 242 231 168 158 149 71 24 43 339 323 0 7 7 43 47 37 18 9 8 348 3 15 13 18 25 17 6 326 329 321 350 333 329 328 328 322 327 17 29 43 25 23 33 16 7 8
248 170 228 274 218 342 286 199 65 90 151 75 87 103 77 56 31 33 38 38 42 31 11 16 334 6 359 7 353 6 22 18 28 29 332 312 294 301 311 318 321 323 330 345 20 30 19 32 24 27 29 24 18 10
296 338 316 1 232 239 236 286 326 16 80 67 21 91 98 112 62 39 33 22 13 25 22 10 15 20 25 22 11 359 355 358 351 348 342 296 310 325 326 339 336 355 56 56 41 37 36 33 28 22 17 10 359 352
358 6 316 318 319 336 332 56 77 89 66 56 36 17 34 47 21 351 347 9 10 357 359 1 19 18 2 3 15 9 337 336 1 352 353 9 23 20 25 25 24 33 40 41 35 29 22 18 10 4 354 350 346 340
301 286 240 297 319 346 4 46 44 74 48 46 49 84 124 163 193 230 31 36 7 4 5 22 55 35 27 18 6 355 357 13 28 37 39 43 42 37 33 25 24 28 30 26 20 13 11 2 356 354 347 341 337 334